weather.gov     
National Weather Service

Regional Weather Roundup
NWS Homepage
This page is being discontinued on March 12, 2014.
The same data is available at this site. Please update your bookmarks.
Thank you, and we apologize for the inconvenience.
Please send an email to SR-SRH.Webmaster@noaa.gov with any concerns.


Current Version
Previous Version:    01  02  03  04  05  06  07  08  09  10  11  12  13  14  15  16  17  18  19  20  21  22  23  24  25  26  
[Printable]
302
ASUS46 KPQR 200810
RWROR

OREGON REGIONAL WEATHER ROUNDUP
NATIONAL WEATHER SERVICE PORTLAND OR
100 AM PDT WED AUG 20 2014

NOTE: "FAIR" INDICATES FEW OR NO CLOUDS BELOW 12,000 FEET WITH
NO SIGNIFICANT WEATHER AND/OR OBSTRUCTIONS TO VISIBILITY.

ORZ001>013-200900-
NORTHWEST OREGON


CITY           SKY/WX    TMP DP  RH WIND       PRES   REMARKS
ASTORIA        CLOUDY    57  56  96 W6        29.92R
NEWPORT        PTCLDY    55  55 100 CALM      29.96S
PORTLAND       MOCLDY    63  55  75 NW3       29.90R
VANCOUVER WA   NOT AVBL
SCAPPOOSE      CLEAR     60  51  72 NW6       29.90R
HILLSBORO      NOT AVBL
AURORA         CLEAR     62  54  74 N3        29.90S
MCMINNVILLE    MOCLDY    61  55  81 W3        29.91R
SALEM          CLEAR     63  55  75 W6        29.90R
CORVALLIS      CLEAR     63  57  82 NW12      29.92R
EUGENE         MOCLDY    65  58  78 CALM      29.91R
$$

ORZ021-028-200900-
SOUTHWEST OREGON


CITY           SKY/WX    TMP DP  RH WIND       PRES   REMARKS
NORTH BEND     CLOUDY    59  59 100 CALM      29.96R
BROOKINGS      FOG       55  55 100 VRB3      29.87S VSB 1/4
ROSEBURG       CLEAR     69  57  65 NE3       29.91R
SEXTON SUMMIT  CLEAR     55  52  89 VRB5      29.98S
MEDFORD        CLEAR     72  56  57 CALM      29.89R
$$

ORZ009-041-200900-
COLUMBIA GORGE


CITY           SKY/WX    TMP DP  RH WIND       PRES   REMARKS
TROUTDALE      NOT AVBL
THE DALLES     CLEAR     72  56  57 NW22G36   29.77S
$$

ORZ029>031-042>050-061>064-200900-
EASTERN OREGON


CITY           SKY/WX    TMP DP  RH WIND       PRES   REMARKS
REDMOND        CLEAR     65  51  60 NW9       29.89S
BEND           SUNNY     59  50  72 CALM      29.93S
KLAMATH FALLS  CLEAR     62  51  67 NW6       29.96R
LAKEVIEW       PTCLDY    61  46  59 N12       29.99S
HERMISTON      PTCLDY    73  57  57 SW14      29.73R
PENDLETON      MOCLDY    72  53  51 W23       29.76S
JOHN DAY       SUNNY     65  45  49 W3        29.90S
MEACHAM        CLEAR     61  50  67 CALM      29.88S
LA GRANDE      CLEAR     70  45  40 NW13      29.83R
BAKER CITY     CLEAR     58  45  62 VRB3      29.85S
BURNS          CLEAR     58  42  55 W7        29.90S
ROME             N/A     59  46  62 SE8       29.86R
ONTARIO        CLEAR     71  47  42 SW6       29.77R
$$




U.S. Dept. of Commerce
NOAA National Weather Service
1325 East West Highway
Silver Spring, MD 20910
E-mail: w-nws.webmaster@noaa.gov
Page last modified: May 16, 2007
NATIONAL WEATHER SERVICE: for Safety, for Work, for Fun - FOR LIFE